Location: Unspecified
(0.0000°N, 0.0000°E)
Time: 20:56:56
(UTC+00:00)

Transit 4A - Pass Details

Date: 01 June 2022
Orbit: 864 x 980 km, 66.8° (Epoch: 26 June)

Event Time Altitude Azimuth Distance (km) Brightness Sun altitude
Rises 00:50:17 0° 201° (SSW) 3,575 - -64.5°
Reaches altitude 10° 00:52:47 10° 201° (SSW) 2,647 - -64.2°
Maximum altitude 00:58:59 86° 289° (WNW) 961 - -63.4°
Drops below altitude 10° 01:05:19 10° 18° (NNE) 2,704 - -62.5°
Sets 01:07:54 0° 19° (NNE) 3,657 - -62.1°
